Location: La Coruña
(43.3623°N, 8.4115°W)
Time: 19:54:37
(UTC+01:00)

STARLINK-1078 - Pass Details

Date: 19 January 2020
Orbit: 348 x 351 km, 53.0° (Epoch: 18 February)

Event Time Altitude Azimuth Distance (km) Brightness Sun altitude
Rises 20:30:52 0° 277° (W) 2,173 8.0 -22.1°
Reaches altitude 10° 20:33:18 10° 298° (WNW) 1,332 6.3 -22.5°
Enters shadow 20:34:42 17° 324° (NW) 1,020 5.3 -22.8°
